OBJECT AF, 57195

Orbit data source: Space-Track

You're viewing an Uncataloged Satellite

Recently launched and/or uncataloged satellites may have evolving metadata. Metadata may include but not limited to: Owner, Maufacturer, Bus, Motor, and Mission.

OBJECT AF, 57195 is a satellite in SSO that was launched on Tue, 27 Jun 2023 UTC via a SOYUZ-2-1B launch vehicle from the Vostochny Cosmodrome (VOSTO). Unknown objects in Earth's orbit typically refer to objects detected orbiting the Earth but have not yet been identified or cataloged. These objects could be anything from previously untracked satellites, spent rocket stages, debris from satellite collisions, or even natural meteoroids temporarily captured by Earth's gravity.

Loading next visibility...
Identifier
57195, 2023-091AF
Orbit
SSO
Country
Flag of TBDTBD
Related business
Manufacturer
NILAKT DOSAAF
Mission
Operational Amateur Science
Bus & Motor
CUBESAT 3U, Unknown motor
Mass
5 kg wet, 5 kg dry
Launch date (UTC)
2023-06-27 (3 years ago)
Launch vehicle
SOYUZ-2-1B
Launch site
Vostochny Cosmodrome (VOSTO)
Object type
Unknown
Shape & HBR
Box, 0.1 m
Radar Cross Section
0.035 m², Medium (>0.1 m² and < 1m²)

Expand to show TLE details & history
Last TLE update: 20 hours ago

TLE from 20 hours ago
0 OBJECT AF
1 57195U 23091AF  26149.53491557  .00006970  00000-0  32514-3 0  9993
2 57195  97.5103 209.1886 0010861 167.2423 192.9089 15.20124223161197
Epoch: 2026-05-29T12:50Z
TLE epoch observation values (Epoch: 2026-05-29T12:50:16.705Z)
Latitude
0.00001°
Longitude
129.55509°
Altitude
515.842 km
Speed
7.602 km/s
True Right ascension
13h 56m 45s
True Declination
0° 00' 00"
Sunlit
Object was in full shadow at epoch
Visualization orbit readout
Latitude
Unknown
Longitude
Unknown
Altitude
Unknown
Speed
Unknown
Apparent Right ascension
Unknown
Apparent Declination
Unknown
Sunlit
N/A
Visualization observer readout
Local Sidereal Time
17:54:54
Azimuth
Unknown
Elevation
Unknown
Doppler factor
Unknown
Orbital elements
Apogee altitude
509.909 km
Perigee altitude
494.963 km
Semi-major axis
6,880.573 km
Eccentricity
0.00109
Inclination
97.5103°
RAAN
209.1886°
Arg. of periapsis
167.2423°
True anomaly
192.88113°
Mean anomaly
192.9089°
Eccentric anomaly
192.89501°
Mean motion
3.80282 °/min
Orbital period
94.67 mins
BSTAR
0.00032514
Loading maneuver chart data...
Computing Atmospheric mass density...
Loading historical data...
Loading historical data...
Loading historical data...
Loading historical data...
Loading historical data...
Loading historical data...
Loading historical data...

Documentation

Showing up to 5 results
|